| time (UTC) | temp F | wind direction | speed MPH | gust MPH | rain 1hr in | rain 24hr in | rain mn in | humidity % | barometer mb |
| 20260505124526 | 41 | 358 | 3.0 | 0.0 | 0.00 | 0.00 | 0.00 | 88 | 1006.8 |
| 20260505123109 | 41 | 42 | 1.0 | 0.0 | 0.00 | 0.00 | 0.00 | 88 | 1006.4 |
| 20260505121523 | 41 | 42 | 1.0 | 0.0 | 0.00 | 0.00 | 0.00 | 88 | 1006.1 |
| 20260505120015 | 41 | 42 | 3.0 | 0.0 | 0.00 | 0.00 | 0.00 | 87 | 1005.0 |
| 20260505114534 | 41 | 34 | 4.0 | 0.0 | 0.00 | 0.00 | 0.00 | 87 | 1004.8 |
| 20260505113009 | 41 | 6 | 5.0 | 0.0 | 0.00 | 0.00 | 0.00 | 86 | 1004.4 |
| 20260505111518 | 41 | 46 | 5.0 | 0.0 | 0.00 | 0.00 | 0.00 | 86 | 1004.3 |
| 20260505101522 | 42 | 39 | 9.0 | 0.0 | 0.00 | 0.00 | 0.00 | 85 | 1002.9 |
| 20260505100029 | 42 | 44 | 9.0 | 0.0 | 0.00 | 0.00 | 0.00 | 85 | 1002.5 |
| 20260505094548 | 43 | 41 | 8.0 | 0.0 | 0.00 | 0.00 | 0.00 | 85 | 1002.3 |
| 20260505093005 | 43 | 18 | 8.0 | 0.0 | 0.00 | 0.00 | 0.00 | 84 | 1002.2 |
| 20260505091510 | 43 | 25 | 12.0 | 0.0 | 0.00 | 0.00 | 0.00 | 83 | 1002.1 |
| 20260505090009 | 44 | 20 | 11.0 | 0.0 | 0.00 | 0.00 | 0.00 | 82 | 1001.7 |
| 20260505084533 | 44 | 35 | 12.0 | 0.0 | 0.00 | 0.00 | 0.00 | 79 | 1001.7 |
| 20260505083041 | 45 | 27 | 11.0 | 0.0 | 0.00 | 0.00 | 0.00 | 78 | 1001.5 |
| 20260505081548 | 45 | 34 | 11.0 | 0.0 | 0.00 | 0.00 | 0.00 | 78 | 1001.7 |
| 20260505080016 | 47 | 35 | 7.0 | 0.0 | 0.00 | 0.00 | 0.00 | 78 | 1002.0 |
| 20260505074525 | 47 | 58 | 5.0 | 0.0 | 0.00 | 0.00 | 0.00 | 76 | 1002.1 |
| 20260505073039 | 47 | 30 | 8.0 | 0.0 | 0.00 | 0.00 | 0.00 | 74 | 1002.1 |
| 20260505071524 | 48 | 42 | 8.0 | 0.0 | 0.00 | 0.00 | 0.00 | 72 | 1001.8 |
| 20260505070056 | 49 | 51 | 12.0 | 0.0 | 0.00 | 0.00 | 0.00 | 69 | 1001.9 |
| 20260505064559 | 49 | 66 | 12.0 | 0.0 | 0.00 | 0.00 | 0.00 | 66 | 1001.2 |
| 20260505064501 | 49 | 61 | 12.0 | 0.0 | 0.00 | 0.00 | 0.00 | 65 | 1001.2 |
| 20260505063059 | 50 | 34 | 11.0 | 0.0 | 0.00 | 0.00 | 0.00 | 64 | 1000.6 |
| 20260505061521 | 52 | 46 | 12.0 | 0.0 | 0.00 | 0.00 | 0.00 | 58 | 999.8 |
| 20260505060046 | 52 | 66 | 14.0 | 0.0 | 0.00 | 0.00 | 0.00 | 54 | 999.5 |
| 20260505054537 | 53 | 69 | 12.0 | 0.0 | 0.00 | 0.00 | 0.00 | 52 | 999.5 |
| 20260505053040 | 53 | 69 | 13.0 | 0.0 | 0.00 | 0.00 | 0.00 | 51 | 999.1 |
| 20260505051546 | 54 | 44 | 14.0 | 0.0 | 0.00 | 0.00 | 0.00 | 51 | 998.8 |
| 20260505050121 | 54 | 61 | 17.0 | 0.0 | 0.00 | 0.00 | 0.00 | 49 | 998.9 |
| 20260505041545 | 58 | 72 | 11.0 | 0.0 | 0.00 | 0.00 | 0.00 | 41 | 998.2 |
| 20260505040031 | 58 | 44 | 11.0 | 0.0 | 0.00 | 0.00 | 0.00 | 40 | 999.1 |
| 20260505034557 | 59 | 51 | 13.0 | 0.0 | 0.00 | 0.00 | 0.00 | 39 | 998.8 |
| 20260505033008 | 59 | 59 | 16.0 | 0.0 | 0.00 | 0.00 | 0.00 | 38 | 998.3 |
| 20260505031513 | 60 | 32 | 16.0 | 0.0 | 0.00 | 0.00 | 0.00 | 36 | 998.0 |
| 20260505030019 | 61 | 73 | 19.0 | 0.0 | 0.00 | 0.00 | 0.00 | 35 | 998.3 |
| 20260505024540 | 61 | 59 | 15.0 | 0.0 | 0.00 | 0.00 | 0.00 | 35 | 997.6 |
| 20260505023050 | 62 | 32 | 17.0 | 0.0 | 0.00 | 0.00 | 0.00 | 35 | 997.0 |
| 20260505021514 | 63 | 73 | 19.0 | 0.0 | 0.00 | 0.00 | 0.00 | 34 | 997.1 |
| 20260505020025 | 64 | 34 | 17.0 | 0.0 | 0.00 | 0.00 | 0.00 | 35 | 997.5 |
| 20260505014529 | 65 | 69 | 17.0 | 0.0 | 0.00 | 0.00 | 0.00 | 35 | 996.8 |
| 20260505013042 | 66 | 54 | 17.0 | 0.0 | 0.00 | 0.00 | 0.00 | 32 | 996.1 |
| 20260505011503 | 67 | 38 | 17.0 | 0.0 | 0.00 | 0.00 | 0.00 | 31 | 995.5 |
| 20260505010009 | 68 | 46 | 19.0 | 0.0 | 0.00 | 0.00 | 0.00 | 29 | 996.2 |
| 20260505004538 | 70 | 51 | 17.0 | 0.0 | 0.00 | 0.00 | 0.00 | 28 | 995.9 |
| 20260505003004 | 71 | 69 | 18.0 | 0.0 | 0.00 | 0.00 | 0.00 | 26 | 995.4 |
| 20260505001511 | 71 | 27 | 15.0 | 0.0 | 0.00 | 0.00 | 0.00 | 27 | 995.5 |
| 20260505000044 | 74 | 342 | 14.0 | 0.0 | 0.00 | 0.00 | 0.00 | 24 | 995.3 |
| 20260504234604 | 76 | 330 | 6.0 | 0.0 | 0.00 | 0.00 | 0.00 | 16 | 994.8 |
| 20260504233057 | 76 | 41 | 8.0 | 0.0 | 0.00 | 0.00 | 0.00 | 16 | 994.4 |
| 20260504231557 | 77 | 277 | 9.0 | 0.0 | 0.00 | 0.00 | 0.00 | 14 | 994.2 |
| 20260504230011 | 78 | 298 | 6.0 | 0.0 | 0.00 | 0.00 | 0.00 | 13 | 993.9 |
| 20260504224508 | 80 | 268 | 5.0 | 0.0 | 0.00 | 0.00 | 0.00 | 12 | 993.8 |
| 20260504223005 | 80 | 295 | 4.0 | 0.0 | 0.00 | 0.00 | 0.00 | 12 | 993.4 |
| 20260504221542 | 81 | 308 | 3.0 | 0.0 | 0.00 | 0.00 | 0.00 | 12 | 993.6 |
| 20260504220006 | 80 | 279 | 4.0 | 0.0 | 0.00 | 0.00 | 0.00 | 11 | 993.4 |
| 20260504214513 | 81 | 319 | 3.0 | 0.0 | 0.00 | 0.00 | 0.00 | 12 | 993.5 |
| 20260504213042 | 82 | 325 | 5.0 | 0.0 | 0.00 | 0.00 | 0.00 | 12 | 993.8 |
| 20260504211522 | 82 | 284 | 4.0 | 0.0 | 0.00 | 0.00 | 0.00 | 11 | 993.6 |
| 20260504210049 | 83 | 316 | 5.0 | 0.0 | 0.00 | 0.00 | 0.00 | 13 | 993.7 |
| 20260504204506 | 81 | 213 | 6.0 | 0.0 | 0.00 | 0.00 | 0.00 | 11 | 994.1 |
| 20260504203037 | 84 | 137 | 3.0 | 0.0 | 0.00 | 0.00 | 0.00 | 11 | 994.0 |
| 20260504201540 | 85 | 316 | 3.0 | 0.0 | 0.00 | 0.00 | 0.00 | 12 | 994.0 |
| 20260504200050 | 83 | 72 | 5.0 | 0.0 | 0.00 | 0.00 | 0.00 | 14 | 993.6 |
| 20260504194604 | 83 | 230 | 6.0 | 0.0 | 0.00 | 0.00 | 0.00 | 12 | 993.9 |
| 20260504193014 | 83 | 277 | 4.0 | 0.0 | 0.00 | 0.00 | 0.00 | 13 | 994.1 |
| 20260504191512 | 82 | 326 | 5.0 | 0.0 | 0.00 | 0.00 | 0.00 | 15 | 994.2 |
| 20260504190100 | 82 | 312 | 5.0 | 0.0 | 0.00 | 0.00 | 0.00 | 15 | 994.6 |
| 20260504184518 | 81 | 320 | 4.0 | 0.0 | 0.00 | 0.00 | 0.00 | 17 | 994.9 |
| 20260504183056 | 80 | 8 | 5.0 | 0.0 | 0.00 | 0.00 | 0.00 | 18 | 995.2 |
| 20260504183002 | 80 | 340 | 5.0 | 0.0 | 0.00 | 0.00 | 0.00 | 18 | 995.2 |
| 20260504181510 | 79 | 326 | 4.0 | 0.0 | 0.00 | 0.00 | 0.00 | 17 | 995.5 |
| 20260504180018 | 80 | 308 | 4.0 | 0.0 | 0.00 | 0.00 | 0.00 | 18 | 995.4 |
| 20260504174526 | 79 | 51 | 5.0 | 0.0 | 0.00 | 0.00 | 0.00 | 20 | 995.9 |
| 20260504173023 | 79 | 288 | 5.0 | 0.0 | 0.00 | 0.00 | 0.00 | 20 | 996.1 |
| 20260504171539 | 78 | 310 | 5.0 | 0.0 | 0.00 | 0.00 | 0.00 | 18 | 996.3 |